[[{"header":{"parameterUnit":"m.s-1","parameterCategory":1,"la1":30.2991,"la2":30.254,"lo1":-89.0895,"lo2":-89.0444,"dy":0.0017,"dx":0.0017,"nx":28,"ny":28,"refTime":"2025-06-13T09:00:00:Z","depth":0,"parameterNumber":2,"parameterNumberName":"U-component_of_WINDS"},"data":[0,0,0,0,0,0,0,0,0,0,0,0,0,0,0,0,0,0,0,0,0,0,0,0,0,0,0,0,0,0,0,0,0,0,0,0,0,0,0,0,0,0,0,0,0,0,0,0,0,0,0,0,0,0,0,0,0,0,-1.7528,-1.7529,0,-1.7633,-1.7634,-1.7636,-1.7672,-1.7672,-1.7672,-1.7671,-1.778,-1.7783,-1.7786,0,0,0,0,0,0,0,0,0,0,0,0,0,-1.7361,-1.7364,-1.7528,-1.7529,-1.7531,-1.7633,-1.7634,-1.7636,-1.7672,-1.7672,-1.7671,-1.7671,-1.7779,-1.7783,-1.7787,0,0,0,0,0,0,0,0,0,0,0,0,0,-1.7447,-1.7365,-1.7528,-1.7561,-1.7565,-1.7633,-1.7635,-1.7636,-1.7673,-1.7672,-1.7671,-1.7671,-1.7778,-1.7782,-1.7787,-1.7829,0,0,-1.7802,-1.7804,0,0,0,0,0,0,0,0,-1.7442,-1.7453,-1.7555,-1.7559,-1.7564,-1.7639,-1.7616,-1.7701,-1.7673,-1.7632,-1.7671,-1.767,-1.7734,-1.7742,-1.7763,-1.7835,-1.7839,-1.7803,-1.7806,-1.7808,-1.7809,0,0,0,0,0,0,0,-1.7436,-1.7448,-1.757,-1.7557,-1.7562,-1.7572,-1.7583,-1.7632,-1.7685,-1.7635,-1.7638,-1.765,-1.7736,-1.7758,-1.7766,-1.7841,-1.7802,-1.7807,-1.781,-1.7812,-1.7953,-1.7953,0,0,0,0,0,0,-1.7424,-1.7443,-1.7566,-1.7573,-1.75,-1.7575,-1.7588,-1.7616,-1.7684,-1.7694,-1.7651,-1.7651,-1.775,-1.776,-1.777,-1.7824,-1.7808,-1.7812,-1.7815,-1.7952,-1.7953,-1.7954,0,0,0,0,0,0,-1.742,-1.7435,-1.7562,-1.7509,-1.7526,-1.7579,-1.7609,-1.7618,-1.764,-1.7696,-1.7706,-1.7664,-1.775,-1.7763,-1.7814,-1.7829,-1.7814,-1.7819,-1.7951,-1.7952,-1.7953,-1.7933,0,0,0,0,0,0,-1.7415,-1.7433,-1.7449,-1.7509,-1.7529,-1.7604,-1.761,-1.762,-1.7649,-1.7651,-1.7711,-1.772,-1.7751,-1.7807,-1.7819,-1.7835,-1.7823,-1.795,-1.7952,-1.7953,-1.7932,-1.7933,-1.7934,0,0,0,0,0,-1.7409,-1.744,-1.745,-1.7465,-1.755,-1.7605,-1.7616,-1.7651,-1.765,-1.7667,-1.7702,-1.7718,-1.7825,-1.7812,-1.7826,-1.7844,-1.7949,-1.7951,-1.7953,-1.7932,-1.7933,-1.7934,0,0,0,0,0,0,-1.7381,-1.7448,-1.746,-1.7511,-1.7552,-1.7611,-1.7634,-1.765,-1.7693,-1.7693,-1.7734,-1.7748,-1.7796,-1.7825,-1.7809,-1.7888,-1.7888,-1.7893,-1.7867,-1.7869,-1.7869,-1.7861,-1.7827,0,0,0,0,0,-1.738,-1.7419,-1.7476,-1.7515,-1.7535,-1.758,-1.7606,-1.7629,-1.7673,-1.7691,-1.773,-1.7773,-1.7817,-1.7844,-1.7887,-1.7937,-1.7951,-1.7956,-1.7957,-1.7957,-1.796,-1.7989,-1.7992,-1.796,-1.796,-1.796,0,0,-1.738,-1.7421,-1.7443,-1.751,-1.7545,-1.7584,-1.7595,-1.7636,-1.7667,-1.7697,-1.7748,-1.7779,-1.7829,-1.788,-1.7904,-1.7906,-1.7973,-1.7959,-1.7959,-1.7963,-1.7991,-1.7994,-1.7997,-1.7961,-1.7961,-1.7961,0,0,-1.7399,-1.7434,-1.747,-1.7505,-1.7557,-1.7587,-1.7596,-1.7653,-1.7674,-1.7726,-1.775,-1.7786,-1.786,-1.7895,-1.7923,-1.7956,-1.7972,-1.7968,-1.7972,-1.7999,-1.8002,-1.8004,-1.8016,-1.802,-1.7972,-1.7972,-1.7972,0,-1.7392,-1.7452,-1.7487,-1.7527,-1.7556,-1.7586,-1.7623,-1.7655,-1.7719,-1.7738,-1.7739,-1.7832,-1.7868,-1.7928,-1.7936,-1.7957,-1.7969,-1.7962,-1.7999,-1.8001,-1.8004,-1.8016,-1.802,-1.7971,-1.7971,-1.7971,-1.7971,0,-1.7441,-1.7482,-1.7506,-1.7566,-1.7597,-1.7636,-1.7678,-1.7705,-1.7725,-1.7756,-1.7808,-1.7853,-1.7905,-1.7921,-1.7941,-1.7984,-1.7983,-1.799,-1.7991,-1.8006,-1.8018,-1.8023,-1.797,-1.797,-1.797,-1.7971,0,0,-1.7445,-1.7524,-1.7532,-1.756,-1.7619,-1.7652,-1.7693,-1.7744,-1.7767,-1.781,-1.7845,-1.7906,-1.7914,-1.7945,-1.797,-1.7994,-1.8017,-1.7999,-1.8,-1.8001,-1.8067,-1.8061,-1.8065,-1.8028,-1.8029,-1.803,-1.8063,0,-1.7473,-1.7545,-1.7578,-1.7636,-1.7675,-1.7703,-1.7739,-1.7779,-1.7809,-1.7846,-1.7879,-1.7922,-1.7929,-1.7948,-1.7973,-1.8009,-1.8031,-1.8007,-1.8062,-1.8063,-1.8048,-1.8072,-1.8065,-1.8094,-1.8067,-1.8068,-1.8069,0,-1.7514,-1.7556,-1.7618,-1.7673,-1.7691,-1.7721,-1.7771,-1.7806,-1.7853,-1.7873,-1.7908,-1.7931,-1.7975,-1.7973,-1.8034,-1.8017,-1.8041,-1.8062,-1.8064,-1.8071,-1.8067,-1.8079,-1.8104,-1.8108,-1.8076,-1.8076,-1.8075,0,-1.7512,-1.7584,-1.763,-1.7653,-1.7718,-1.7739,-1.7768,-1.7814,-1.7842,-1.7886,-1.7905,-1.7953,-1.7979,-1.8016,-1.8052,-1.8047,-1.811,-1.811,-1.8128,-1.8127,-1.814,-1.8139,-1.8169,-1.8155,-1.8155,-1.8155,-1.8155,0,-1.7539,-1.7575,-1.763,-1.7658,-1.77,-1.7738,-1.7779,-1.7809,-1.785,-1.7886,-1.7913,-1.7946,-1.7991,-1.803,-1.8058,-1.8105,-1.8117,-1.8134,-1.8141,-1.8132,-1.813,-1.8149,-1.8148,-1.8156,-1.8156,-1.8156,-1.8156,0,-1.7543,-1.7581,-1.7633,-1.769,-1.7706,-1.7734,-1.7784,-1.7813,-1.7843,-1.7888,-1.79,-1.7949,-1.7995,-1.8035,-1.8097,-1.8116,-1.8164,-1.8173,-1.8148,-1.8152,-1.8167,-1.8165,-1.8211,-1.822,-1.82,-1.82,-1.82,0,-1.7558,-1.7587,-1.7647,-1.7672,-1.77,-1.774,-1.7769,-1.7808,-1.7837,-1.7893,-1.7915,-1.7964,-1.8005,-1.8078,-1.8119,-1.8167,-1.8177,-1.8189,-1.8184,-1.8173,-1.8177,-1.8175,-1.8178,-1.819,-1.819,-1.819,-1.819,0,-1.7581,-1.7598,-1.7639,-1.7686,-1.7719,-1.7758,-1.7798,-1.7818,-1.7864,-1.7895,-1.7943,-1.7975,-1.8037,-1.8086,-1.8137,-1.8167,-1.8186,-1.8191,-1.8198,-1.8188,-1.8173,-1.8182,-1.8149,-1.819,-1.819,-1.819,-1.819,-1.819,-1.7592,-1.7619,-1.7665,-1.7709,-1.7743,-1.7779,-1.7809,-1.7844,-1.7884,-1.7938,-1.7958,-1.8007,-1.8053,-1.8125,-1.8155,-1.8194,-1.8197,-1.8206,-1.8209,-1.821,-1.8209,-1.8166,-1.8204,-1.8204,-1.8204,-1.8204,-1.8204,0,-1.7616,-1.7647,-1.7687,-1.7742,-1.7777,-1.7791,-1.7836,-1.7864,-1.7907,-1.7948,-1.7988,-1.8043,-1.809,-1.8134,-1.8183,-1.8206,-1.8216,-1.8218,-1.8217,-1.8223,-1.8204,-1.8193,-1.8209,-1.8209,-1.8209,-1.8209,-1.8209,-1.8209,-1.7633,-1.7679,-1.7702,-1.7765,-1.7797,-1.7844,-1.7869,-1.7903,-1.7936,-1.7996,-1.8035,-1.8063,-1.8106,-1.8158,-1.8202,-1.8214,-1.8231,-1.823,-1.8244,-1.8226,-1.8224,-1.8224,-1.8214,-1.8233,-1.8233,-1.826,-1.8261,-1.8261]},{"header":{"parameterUnit":"m.s-1","parameterCategory":1,"la1":30.2991,"la2":30.254,"lo1":-89.0895,"lo2":-89.0444,"dy":0.0017,"dx":0.0017,"nx":28,"ny":28,"refTime":"2025-06-13T09:00:00:Z","depth":0,"parameterNumber":3,"parameterNumberName":"V-component_of_WINDS"},"data":[0,0,0,0,0,0,0,0,0,0,0,0,0,0,0,0,0,0,0,0,0,0,0,0,0,0,0,0,0,0,0,0,0,0,0,0,0,0,0,0,0,0,0,0,0,0,0,0,0,0,0,0,0,0,0,0,0,0,5.6406,5.6406,0,5.6434,5.6434,5.6435,5.634,5.6337,5.6334,5.6332,5.6359,5.6362,5.6366,0,0,0,0,0,0,0,0,0,0,0,0,0,5.6267,5.627,5.6406,5.6406,5.6407,5.6434,5.6435,5.6435,5.6341,5.6337,5.6334,5.633,5.6358,5.6362,5.6366,0,0,0,0,0,0,0,0,0,0,0,0,0,5.6315,5.6271,5.6406,5.6363,5.6359,5.6434,5.6435,5.6435,5.6341,5.6337,5.6333,5.6329,5.6356,5.6361,5.6366,5.6483,0,0,5.6382,5.6384,0,0,0,0,0,0,0,0,5.6312,5.632,5.6369,5.6366,5.6362,5.6379,5.6395,5.6451,5.6342,5.6348,5.6332,5.6327,5.6369,5.6373,5.6387,5.6485,5.6486,5.6382,5.6385,5.6388,5.6389,0,0,0,0,0,0,0,5.6309,5.6318,5.6417,5.637,5.6366,5.6341,5.6343,5.6405,5.6382,5.6347,5.634,5.6345,5.6366,5.6383,5.6387,5.6486,5.6382,5.6387,5.639,5.6392,5.6678,5.6682,0,0,0,0,0,0,5.6311,5.6316,5.6416,5.6418,5.6326,5.6347,5.6349,5.6378,5.6381,5.6378,5.6349,5.6341,5.6376,5.6382,5.6388,5.6523,5.6388,5.6392,5.6395,5.6673,5.6679,5.6683,0,0,0,0,0,0,5.6309,5.6321,5.6415,5.6365,5.6375,5.6354,5.6387,5.6381,5.6397,5.6382,5.6377,5.637,5.6373,5.6381,5.646,5.6522,5.6395,5.6399,5.6668,5.6675,5.6681,5.6795,0,0,0,0,0,0,5.6305,5.6321,5.6366,5.6367,5.6378,5.6488,5.6391,5.6385,5.6406,5.6396,5.6401,5.6398,5.637,5.6453,5.6465,5.6527,5.6403,5.6662,5.6671,5.6679,5.6785,5.6805,5.6821,0,0,0,0,0,5.6301,5.6397,5.6369,5.6382,5.6434,5.6491,5.6498,5.6465,5.6412,5.6456,5.6446,5.6398,5.6514,5.6462,5.6474,5.6539,5.6658,5.6668,5.6678,5.6777,5.6801,5.6821,0,0,0,0,0,0,5.6404,5.6397,5.6365,5.6465,5.648,5.6475,5.653,5.6491,5.6521,5.651,5.6467,5.6469,5.6555,5.6555,5.6497,5.6651,5.6577,5.659,5.6648,5.667,5.6688,5.6685,5.6407,0,0,0,0,0,5.6439,5.6487,5.6477,5.6566,5.6575,5.6552,5.6576,5.6549,5.6562,5.6567,5.6563,5.6577,5.6616,5.6644,5.6679,5.6785,5.6784,5.6836,5.6854,5.6869,5.688,5.6934,5.6956,5.6717,5.6717,5.6717,0,0,5.6511,5.6513,5.6545,5.6587,5.6595,5.6644,5.6558,5.6614,5.6649,5.6576,5.6649,5.6647,5.666,5.6752,5.6793,5.6755,5.6946,5.6882,5.6894,5.6897,5.6947,5.6969,5.699,5.6724,5.6723,5.6722,0,0,5.6666,5.6674,5.6747,5.6757,5.677,5.6754,5.6772,5.6773,5.6768,5.6842,5.6787,5.6828,5.6898,5.6908,5.6923,5.708,5.7036,5.7093,5.7186,5.7239,5.7258,5.7274,5.7329,5.7349,5.7105,5.7105,5.7106,0,5.6754,5.6826,5.679,5.6849,5.6868,5.6804,5.6877,5.6888,5.6913,5.6926,5.6884,5.6968,5.6973,5.7065,5.7104,5.7118,5.7136,5.7092,5.7259,5.7275,5.7289,5.734,5.7361,5.7112,5.7111,5.7111,5.711,0,5.6932,5.6983,5.7041,5.7065,5.7091,5.7157,5.7129,5.7159,5.713,5.7118,5.7192,5.7195,5.7229,5.7249,5.7222,5.7338,5.7313,5.7266,5.719,5.732,5.7366,5.7386,5.7122,5.7119,5.7117,5.7116,0,0,5.7153,5.7156,5.7178,5.7187,5.7196,5.7234,5.7297,5.733,5.7355,5.7374,5.7424,5.7484,5.7439,5.7456,5.7428,5.7475,5.7597,5.7421,5.7421,5.7452,5.7722,5.7757,5.778,5.7568,5.7572,5.7575,5.772,0,5.7304,5.7411,5.7379,5.7486,5.7532,5.7471,5.7524,5.7535,5.7525,5.7561,5.755,5.7592,5.7531,5.754,5.7584,5.7573,5.765,5.7562,5.7612,5.7614,5.7609,5.7805,5.7842,5.7979,5.7739,5.7742,5.7744,0,5.7495,5.752,5.7632,5.7631,5.7649,5.7698,5.7725,5.7761,5.7771,5.776,5.7778,5.7741,5.78,5.7726,5.7806,5.7747,5.7765,5.7763,5.7767,5.7769,5.7686,5.781,5.8023,5.8043,5.7773,5.7771,5.7769,0,5.7642,5.7705,5.7778,5.7789,5.7791,5.7826,5.7828,5.7835,5.7856,5.7879,5.7892,5.7922,5.7939,5.7962,5.7933,5.7882,5.8017,5.7941,5.8008,5.8009,5.8038,5.8036,5.8255,5.8054,5.8054,5.8053,5.8053,0,5.7813,5.7883,5.7844,5.789,5.7966,5.7928,5.8004,5.7999,5.8005,5.8047,5.7997,5.8037,5.7998,5.8035,5.8013,5.8081,5.8089,5.8081,5.8074,5.8084,5.8085,5.8095,5.8084,5.8059,5.8058,5.8057,5.8056,0,5.799,5.7967,5.8043,5.8039,5.8039,5.8095,5.809,5.8131,5.8117,5.8171,5.8182,5.816,5.82,5.8174,5.8215,5.82,5.8289,5.827,5.8285,5.8279,5.8348,5.8341,5.8578,5.8607,5.839,5.8392,5.8394,0,5.8099,5.8152,5.8152,5.8177,5.8182,5.8223,5.8244,5.8209,5.8232,5.8247,5.8286,5.8322,5.8349,5.8416,5.8403,5.8434,5.8413,5.8495,5.8418,5.8426,5.8412,5.8408,5.8412,5.851,5.8512,5.8514,5.8516,0,5.8295,5.8281,5.8314,5.8342,5.8368,5.8389,5.8406,5.8429,5.8393,5.8422,5.8462,5.8483,5.8524,5.856,5.8586,5.8587,5.8545,5.854,5.8557,5.8568,5.8574,5.8569,5.8325,5.8535,5.8533,5.8531,5.853,5.853,5.844,5.8483,5.8489,5.8526,5.8535,5.8551,5.8588,5.8579,5.8612,5.8643,5.862,5.8667,5.8674,5.8704,5.871,5.8746,5.8713,5.8738,5.8744,5.8751,5.8759,5.857,5.8751,5.875,5.875,5.8749,5.8749,0,5.8632,5.8632,5.8667,5.8691,5.872,5.8679,5.8694,5.8721,5.8763,5.8774,5.8801,5.8846,5.888,5.887,5.89,5.8931,5.8912,5.894,5.8936,5.8936,5.8788,5.8769,5.8954,5.8954,5.8954,5.8954,5.8954,5.8954,5.8734,5.8803,5.879,5.8861,5.8861,5.8908,5.892,5.8934,5.8941,5.8994,5.9022,5.9015,5.9017,5.9046,5.9075,5.9071,5.9083,5.9117,5.9106,5.8968,5.8947,5.8928,5.891,5.9121,5.9121,5.9251,5.9253,5.9254]}]]